[[{"header":{"parameterUnit":"m.s-1","parameterCategory":1,"la1":30.2991,"la2":30.254,"lo1":-89.0895,"lo2":-89.0444,"dy":0.0017,"dx":0.0017,"nx":28,"ny":28,"refTime":"2025-04-05T03:00:00:Z","depth":0,"parameterNumber":2,"parameterNumberName":"U-component_of_WINDS"},"data":[0,0,0,0,0,0,0,0,0,0,0,0,0,0,0,0,0,0,0,0,0,0,0,0,0,0,0,0,0,0,0,0,0,0,0,0,0,0,0,0,0,0,0,0,0,0,0,0,0,0,0,0,0,0,0,0,0,0,2.4626,2.4625,0,2.4566,2.4566,2.4565,2.4489,2.4487,2.4486,2.4485,2.4425,2.4424,2.4424,0,0,0,0,0,0,0,0,0,0,0,0,0,2.4672,2.4672,2.4626,2.4625,2.4624,2.4566,2.4566,2.4565,2.4489,2.4487,2.4486,2.4485,2.4425,2.4424,2.4424,0,0,0,0,0,0,0,0,0,0,0,0,0,2.4636,2.4672,2.4626,2.4579,2.4575,2.4567,2.4566,2.4565,2.4489,2.4487,2.4486,2.4484,2.4425,2.4424,2.4424,2.4457,0,0,2.4422,2.4421,0,0,0,0,0,0,0,0,2.4639,2.4635,2.4587,2.4582,2.4577,2.4533,2.456,2.4528,2.449,2.4522,2.4485,2.4483,2.4462,2.4458,2.4451,2.4454,2.4451,2.4422,2.4421,2.4421,2.4421,0,0,0,0,0,0,0,2.4641,2.4637,2.4602,2.4586,2.458,2.4561,2.4554,2.4554,2.4503,2.4519,2.4513,2.4507,2.4459,2.4452,2.4449,2.445,2.4422,2.4421,2.4421,2.442,2.4474,2.4476,0,0,0,0,0,0,2.4651,2.464,2.4604,2.46,2.4604,2.4562,2.4554,2.4549,2.4503,2.4494,2.4509,2.4504,2.4454,2.445,2.4447,2.448,2.4421,2.442,2.442,2.4472,2.4475,2.4477,0,0,0,0,0,0,2.4652,2.4648,2.4606,2.4618,2.4612,2.4563,2.4558,2.4549,2.4542,2.4495,2.4486,2.4511,2.4453,2.4448,2.4454,2.4477,2.442,2.4419,2.447,2.4473,2.4476,2.4549,0,0,0,0,0,0,2.4654,2.4649,2.4661,2.4619,2.4611,2.4615,2.456,2.4549,2.4541,2.4534,2.4495,2.4487,2.4451,2.4456,2.4454,2.4475,2.4419,2.4468,2.4471,2.4475,2.4544,2.4554,2.4562,0,0,0,0,0,2.4656,2.4685,2.4662,2.4659,2.4626,2.4617,2.4612,2.457,2.4543,2.4554,2.4524,2.4488,2.4476,2.4457,2.4454,2.4476,2.4466,2.447,2.4474,2.454,2.4552,2.4562,0,0,0,0,0,0,2.4731,2.4679,2.4653,2.467,2.4648,2.4604,2.4617,2.4584,2.457,2.4564,2.4513,2.4505,2.4517,2.4497,2.4477,2.4504,2.4465,2.4469,2.4516,2.4527,2.4536,2.454,2.4418,0,0,0,0,0,2.475,2.4748,2.4701,2.4721,2.4711,2.4666,2.4661,2.463,2.4606,2.4597,2.4567,2.4545,2.4535,2.453,2.452,2.4542,2.4531,2.4555,2.4564,2.4572,2.4575,2.4583,2.4592,2.449,2.449,2.449,0,0,2.4789,2.476,2.4761,2.4735,2.4715,2.4712,2.4659,2.4659,2.4657,2.4597,2.46,2.4578,2.4549,2.4563,2.4568,2.4547,2.4601,2.4577,2.4583,2.4582,2.4588,2.4598,2.4607,2.4493,2.4492,2.4492,0,0,2.4857,2.4836,2.4848,2.4829,2.4799,2.4768,2.4772,2.4732,2.4715,2.4717,2.4671,2.4668,2.4654,2.4634,2.4623,2.4684,2.4648,2.4682,2.4728,2.4736,2.4744,2.4751,2.4771,2.4778,2.4685,2.4686,2.4686,0,2.4909,2.4904,2.4859,2.4861,2.4851,2.4796,2.4808,2.4791,2.4759,2.4753,2.473,2.471,2.4687,2.4694,2.4709,2.4702,2.4703,2.4685,2.4747,2.4753,2.4759,2.4777,2.4785,2.469,2.4689,2.4689,2.4688,0,2.4968,2.4965,2.4979,2.4948,2.4939,2.4947,2.4903,2.4899,2.4869,2.4841,2.4844,2.4815,2.4796,2.4796,2.4767,2.4798,2.4786,2.4756,2.4716,2.4773,2.4789,2.4796,2.4695,2.4694,2.4693,2.4692,0,0,2.5081,2.5026,2.5032,2.5017,2.4979,2.4976,2.498,2.4962,2.4958,2.4939,2.494,2.4929,2.49,2.4887,2.4856,2.4863,2.491,2.4831,2.483,2.4845,2.494,2.4962,2.4971,2.4887,2.4889,2.489,2.4942,0,2.5141,2.5146,2.5105,2.512,2.5116,2.5064,2.5067,2.5044,2.5018,2.5011,2.4982,2.4974,2.4938,2.4929,2.4934,2.4904,2.4928,2.4899,2.4887,2.4887,2.4894,2.4979,2.5003,2.5053,2.4948,2.4949,2.495,0,2.5212,2.5195,2.5209,2.5169,2.5166,2.517,2.5149,2.5143,2.5115,2.5096,2.5081,2.5045,2.5045,2.5008,2.5007,2.4988,2.4981,2.4965,2.4966,2.4962,2.4921,2.4976,2.5069,2.5076,2.496,2.4959,2.4958,0,2.5291,2.5272,2.5277,2.5266,2.5221,2.5225,2.5206,2.5176,2.5167,2.5149,2.5142,2.5125,2.5114,2.5101,2.5061,2.5038,2.5064,2.5024,2.5046,2.5047,2.5052,2.5052,2.5144,2.5051,2.5051,2.5051,2.5051,0,2.5361,2.5371,2.5312,2.5315,2.5325,2.5278,2.5289,2.5265,2.5239,2.5236,2.5191,2.5189,2.5137,2.5128,2.5097,2.51,2.5096,2.5079,2.507,2.5082,2.5084,2.5075,2.507,2.5053,2.5052,2.5052,2.5052,0,2.545,2.5411,2.5413,2.537,2.5359,2.5368,2.533,2.5331,2.5302,2.5299,2.5296,2.525,2.5238,2.5197,2.5175,2.5154,2.5165,2.515,2.5175,2.5168,2.5192,2.519,2.528,2.5288,2.5193,2.5194,2.5194,0,2.5496,2.5503,2.546,2.5455,2.5438,2.543,2.542,2.5375,2.5366,2.5335,2.5339,2.5324,2.5308,2.5291,2.5256,2.5238,2.522,2.5253,2.5217,2.5228,2.5218,2.5218,2.5217,2.5261,2.5262,2.5263,2.5264,0,2.5581,2.5562,2.555,2.5531,2.552,2.5503,2.5483,2.5482,2.5431,2.5423,2.541,2.5399,2.5376,2.536,2.5336,2.5316,2.5281,2.5275,2.5279,2.529,2.5303,2.5294,2.5193,2.5273,2.5272,2.5272,2.5271,2.5271,2.5649,2.5651,2.5621,2.5609,2.5589,2.5572,2.557,2.5541,2.5529,2.5507,2.5481,2.547,2.5441,2.5406,2.5388,2.5379,2.536,2.5366,2.5367,2.5369,2.5373,2.5307,2.5374,2.5374,2.5374,2.5373,2.5373,0,2.573,2.5708,2.5697,2.567,2.5661,2.5629,2.5605,2.5599,2.559,2.5567,2.5552,2.5537,2.5521,2.5484,2.5465,2.5464,2.5447,2.546,2.5459,2.5454,2.5393,2.539,2.5474,2.5474,2.5474,2.5474,2.5474,2.5474,2.577,2.5773,2.575,2.5741,2.5719,2.5709,2.5698,2.5681,2.5661,2.5645,2.5632,2.5609,2.5579,2.5556,2.554,2.5529,2.5523,2.5541,2.5525,2.5468,2.5459,2.5449,2.5447,2.5541,2.5541,2.5587,2.5588,2.5588]},{"header":{"parameterUnit":"m.s-1","parameterCategory":1,"la1":30.2991,"la2":30.254,"lo1":-89.0895,"lo2":-89.0444,"dy":0.0017,"dx":0.0017,"nx":28,"ny":28,"refTime":"2025-04-05T03:00:00:Z","depth":0,"parameterNumber":3,"parameterNumberName":"V-component_of_WINDS"},"data":[0,0,0,0,0,0,0,0,0,0,0,0,0,0,0,0,0,0,0,0,0,0,0,0,0,0,0,0,0,0,0,0,0,0,0,0,0,0,0,0,0,0,0,0,0,0,0,0,0,0,0,0,0,0,0,0,0,0,9.4082,9.4085,0,9.4301,9.4304,9.4306,9.4305,9.4302,9.4299,9.4297,9.4516,9.4525,9.4533,0,0,0,0,0,0,0,0,0,0,0,0,0,9.3661,9.3669,9.4082,9.4085,9.4088,9.4301,9.4304,9.4307,9.4306,9.4302,9.4299,9.4295,9.4514,9.4524,9.4534,0,0,0,0,0,0,0,0,0,0,0,0,0,9.3858,9.3671,9.4082,9.4113,9.4118,9.43,9.4304,9.4307,9.4306,9.4302,9.4298,9.4294,9.451,9.4523,9.4535,9.4699,0,0,9.4574,9.458,0,0,0,0,0,0,0,0,9.3847,9.3874,9.4105,9.4111,9.4117,9.4271,9.4236,9.4439,9.4307,9.4235,9.4297,9.4292,9.4438,9.4456,9.4507,9.471,9.4719,9.4575,9.4583,9.4588,9.4592,0,0,0,0,0,0,0,9.3833,9.3864,9.4168,9.4109,9.4116,9.4115,9.4139,9.4274,9.4357,9.4241,9.4241,9.4267,9.444,9.4494,9.4512,9.4722,9.4575,9.4586,9.4594,9.4599,9.5075,9.5079,0,0,0,0,0,0,9.3814,9.3853,9.4162,9.4175,9.3969,9.4126,9.4152,9.4226,9.4356,9.4372,9.4271,9.4266,9.4475,9.4497,9.452,9.4723,9.4588,9.46,9.4608,9.507,9.5076,9.5081,0,0,0,0,0,0,9.3805,9.3841,9.4153,9.4014,9.4054,9.4138,9.4221,9.4233,9.4287,9.4379,9.4393,9.4311,9.4472,9.4502,9.4656,9.473,9.4606,9.4618,9.5064,9.5072,9.5079,9.5129,0,0,0,0,0,0,9.3793,9.3838,9.3902,9.4016,9.4061,9.4286,9.4226,9.424,9.4309,9.4306,9.442,9.4435,9.4471,9.4637,9.4669,9.4746,9.4628,9.5058,9.5067,9.5076,9.5121,9.5137,9.5151,0,0,0,0,0,9.3778,9.3905,9.3905,9.3942,9.4143,9.429,9.4316,9.4356,9.4315,9.438,9.444,9.4432,9.4717,9.4653,9.4688,9.477,9.5053,9.5065,9.5075,9.5114,9.5134,9.5151,0,0,0,0,0,0,9.3795,9.3921,9.3921,9.409,9.418,9.429,9.4372,9.4375,9.4477,9.4469,9.4514,9.454,9.4694,9.4747,9.4673,9.4938,9.488,9.4899,9.4897,9.4917,9.4932,9.4916,9.4638,0,0,0,0,0,9.3819,9.393,9.4033,9.4172,9.4217,9.4287,9.4353,9.4376,9.447,9.4508,9.4578,9.4669,9.478,9.4851,9.4957,9.5129,9.5155,9.5203,9.5218,9.523,9.5246,9.5344,9.5367,9.5118,9.5118,9.5118,0,0,9.3868,9.3951,9.4017,9.4177,9.425,9.4363,9.4319,9.4439,9.4524,9.4525,9.4677,9.4732,9.4836,9.5001,9.5076,9.505,9.5321,9.5245,9.5253,9.5263,9.5358,9.5381,9.5402,9.5126,9.5124,9.5123,0,0,9.4017,9.409,9.4215,9.429,9.4401,9.4447,9.4478,9.4589,9.4626,9.4779,9.4783,9.4884,9.5073,9.5148,9.521,9.5392,9.5389,9.5425,9.5504,9.5598,9.5618,9.5636,9.5702,9.5726,9.5441,9.5441,9.5441,0,9.4064,9.4236,9.4279,9.4402,9.4473,9.4482,9.461,9.4679,9.4818,9.4867,9.4836,9.5076,9.5146,9.533,9.5374,9.5424,9.5461,9.5412,9.5612,9.563,9.5647,9.5711,9.5736,9.5445,9.5444,9.5444,9.5443,0,9.429,9.4409,9.4497,9.4635,9.4715,9.4839,9.4901,9.4977,9.4995,9.5045,9.5201,9.5287,9.5413,9.5458,9.5474,9.5645,9.5626,9.5603,9.5545,9.5674,9.5735,9.576,9.545,9.5449,9.5448,9.5447,0,0,9.4453,9.4616,9.4648,9.4712,9.4837,9.4929,9.5055,9.518,9.5246,9.5342,9.5449,9.5611,9.5592,9.5663,9.5689,9.5772,9.5913,9.5739,9.5742,9.577,9.6109,9.6126,9.6153,9.5912,9.5917,9.5921,9.61,0,9.4617,9.4842,9.4885,9.508,9.5192,9.5204,9.5314,9.5403,9.5453,9.5555,9.561,9.5725,9.569,9.5734,9.5817,9.5878,9.5982,9.5866,9.6012,9.6017,9.5987,9.6185,9.6203,9.6368,9.6124,9.6128,9.6131,0,9.4836,9.4942,9.5149,9.5263,9.5311,9.5409,9.5529,9.5626,9.5727,9.5758,9.5841,9.5858,9.5989,9.5926,9.6109,9.6029,9.6092,9.6131,9.6139,9.6154,9.6082,9.6207,9.6422,9.6447,9.6169,9.6166,9.6163,0,9.4937,9.5131,9.5281,9.5335,9.547,9.5539,9.5599,9.5696,9.577,9.5874,9.5922,9.604,9.6104,9.6195,9.6244,9.6193,9.6424,9.6364,9.6454,9.6453,9.6502,9.6498,9.6731,9.6541,9.654,9.654,9.6539,0,9.5115,9.5242,9.5328,9.542,9.5563,9.5613,9.5752,9.5811,9.5898,9.6002,9.6019,9.6116,9.6174,9.628,9.6319,9.6466,9.6494,9.6523,9.6532,9.6523,9.6519,9.6564,9.6554,9.6546,9.6545,9.6544,9.6542,0,9.5252,9.5315,9.5479,9.5596,9.5628,9.5728,9.5827,9.5918,9.597,9.6101,9.6135,9.6216,9.6341,9.64,9.6554,9.6581,9.6748,9.6748,9.6714,9.6718,9.6805,9.6797,9.7075,9.7115,9.6898,9.69,9.6901,0,9.5361,9.546,9.5588,9.566,9.5722,9.5837,9.5913,9.5966,9.6045,9.617,9.6245,9.6372,9.6477,9.6677,9.6749,9.6868,9.6872,9.6962,9.689,9.6878,9.6876,9.687,9.6881,9.6975,9.6977,9.6979,9.698,0,9.555,9.5578,9.5687,9.581,9.5901,9.5999,9.6096,9.6153,9.6221,9.6309,9.6439,9.652,9.6681,9.6807,9.6931,9.6992,9.6999,9.7003,9.703,9.7021,9.6998,9.7014,9.6751,9.6996,9.6994,9.6993,9.6992,9.6992,9.5678,9.5767,9.5872,9.5995,9.6074,9.6165,9.6256,9.6321,9.6431,9.6567,9.6591,9.673,9.6832,9.7001,9.7066,9.7175,9.7154,9.7193,9.7203,9.7213,9.7219,9.6981,9.7198,9.7198,9.7197,9.7197,9.7197,0,9.5869,9.5938,9.6051,9.6187,9.6284,9.6284,9.6392,9.6473,9.6595,9.669,9.6794,9.6945,9.7068,9.7152,9.7277,9.7349,9.7355,9.738,9.7376,9.739,9.7229,9.7194,9.7373,9.7373,9.7373,9.7373,9.7373,9.7373,9.598,9.6132,9.6172,9.6364,9.6432,9.657,9.6632,9.6716,9.6793,9.6961,9.7065,9.712,9.7211,9.7344,9.7457,9.7479,9.7524,9.7551,9.7571,9.742,9.7401,9.7383,9.7351,9.756,9.756,9.7724,9.7725,9.7726]}]]